SCP
-0 -0 0 0 0 0 0 0 0 -0 -0 0 -0 0 0 -0 0 0 0 0 -0 -0 0 0 -0 -0 -0 -0 -0 -0 -0 -0 -0 -0 -0 0 0 0 0 0 0 0 -0 -0 0 0 0 0 0
-0 -0 0 0 -0 -0 0 -0 -0 -0 0 0 -0 0 0 0 0 -0 -0 -0 -0 -0 -0 -0 -0 -0 -0 -0 -0 -0 -0 -0 -0 -0 -0 0 0 0 0 -0 -0 -0 -0 0 0 0 0 0 0
-0 0 0 0 0 0 0 -0 -0 0 0 -0 -0 0 0 0 0 -0 -0 -0 -0 -0 -0 -0 -0 -0 -0 -0 -0 -0 -0 0 0 -0 -0 -0 -0 -0 -0 -0 -0 -0 0 0 0 -0 0 0 0
0 0 0 0 0 0 -0 -0 -0 -0 0 0 -0 -0 0 0 -0 -0 -0 -0 -0 -0 -0 -0 -0 -0 -0 -0 -0 -0 -0 0 0 0 0 -0 -0 -0 -0 -0 -0 -0 -0 0 0 -0 -0 0 0
0 0 0 0 0 0 0 0 0 0 0 0 0 0 -0 0 0 -0 -0 0 -0 -0 -0 -0 -0 -0 -0 -0 -0 -0 -0 -0 -0 0 0 -0 0 -0 -0 -0 -0 -0 -0 -0 -0 -0 -0 -0 -0
0 0 0 0 0 0 0 -0 0 0 0 -0 0 -0 0 -0 0 -0 -0 0 0 -0 -0 -0 -0 -0 -0 -0 -0 -0 -0 -0 -0 -0 -0 -0 -0 -0 -0 -0 -0 -0 -0 -0 -0 -0 -0 -0 -0
0 0 0 0 0 0 0 -0 0 0 0 0 -0 0 0 -0 0 -0 0 0 0 -0 -0 -0 -0 -0 -0 -0 -0 -0 -0 -0 -0 -0 -0 -0 -0 -0 -0 -0 -0 -0 -0 -0 -0 -0 -0 -0 0
0 0 0 0 0 -0 0 0 0 -0 0 -0 0 0 0 -0 -0 0 0 0 0 0 -0 -0 -0 -0 -0 -0 -0 -0 -0 -0 -0 -0 -0 -0 -0 -0 -0 -0 0 -0 -0 0 0 0 -0 0 -0
0 0 0 0 0 0 0 0 -0 0 -0 0 0 0 -0 -0 -0 -0 0 0 0 0 -0 -0 -0 -0 -0 -0 -0 -0 -0 -0 -0 -0 -0 -0 -0 0 -0 0 0 0 0 0 0 0 0 0 0
0 0 0 0 0 0 0 0 -0 -0 -0 -0 -0 -0 -0 -0 -0 -0 -0 -0 -0 -0 -0 -0 -0 -0 -0 -0 -0 -0 -0 -0 -0 -0 -0 0 -0 -0 0 0 0 0 -0 0 0 0 0 -0 0
0 0 0 0 0 0 0 0 -0 -0 0 -0 -0 -0 -0 -0 -0 -0 -0 -0 -0 -0 -0 -0 -0 -0 -0 -0 -0 -0 -0 -0 -0 -0 0 -0 -0 0 0 -0 -0 -0 0 0 0 0 0 0 0
0 0 0 0 0 0 0 0 -0 -0 -0 -0 -0 -0 -0 -0 -0 0 0 0 -0 -0 -0 -0 -0 -0 -0 -0 0 0 0 -0 -0 0 -0 -0 -0 -0 -0 -0 -0 -0 0 0 0 0 0 0 0
0 0 0 0 0 0 0 0 0 -0 -0 -0 -0 -0 -0 -0 0 0 0 0 -0 -0 -0 -0 -0 -0 -0 -0 -0 0 0 -0 -0 -0 -0 -0 0 -0 -0 -0 0 0 0 0 0 0 0 0 0
0 0 0 0 0 0 0 0 0 0 -0 -0 -0 -0 -0 -0 -0 -0 0 0 -0 -0 -0 -0 -0 -0 -0 -0 -0 0 -0 -0 -0 -0 -0 -0 -0 -0 -0 -0 -0 -0 0 0 0 0 0 -0 -0
0 0 0 0 0 0 0 0 -0 0 -0 -0 -0 -0 -0 -0 -0 -0 -0 -0 -0 -0 -0 -0 -0 -0 -0 -0 -0 -0 -0 -0 -0 -0 -0 -0 -0 -0 -0 -0 -0 0 0 0 0 -0 -0 -0 -0
0 0 0 0 0 0 0 -0 0 -0 -0 -0 -0 -0 -0 -0 -0 -0 -0 -0 -0 -0 -0 -0 -0 -0 -1 -0 -0 -0 -0 -0 -0 -0 -0 -0 -0 -0 -0 -0 -0 0 -0 0 0 -0 -0 -0 -0
0 0 0 -0 0 0 0 0 0 -0 -0 -0 -0 -0 -0 -0 -0 -0 -0 -0 -0 -0 -0 -0 -0 -0 -0 -0 -0 -0 -0 -0 -0 -0 -0 0 -0 -0 -0 -0 -0 -0 -0 0 0 0 0 -0 -0
-0 -0 -0 -0 -0 -0 0 -0 -0 -0 -0 -0 -0 -0 -0 0 -0 -0 -0 -0 -0 -0 -0 -0 -0 -1 -1 -0 -0 -0 -0 -0 -0 0 0 0 0 0 -0 0 -0 -0 0 0 0 0 0 0 0
0 -0 0 0 0 0 0 -0 -0 -0 -0 -0 -0 -0 -0 -0 -0 -0 -0 -0 -0 -0 -0 -0 -0 -0 -0 -0 -0 -0 -0 -0 0 0 0 -0 -0 -0 0 0 -0 -0 0 0 0 0 0 0 0
0 0 -0 -0 0 0 0 -0 0 0 -0 -0 -0 -0 -0 -0 -0 -0 0 -0 -0 -0 -0 -0 -0 -1 -1 -0 -0 0 0 0 0 0 -0 -0 -0 0 0 -0 -0 -0 0 0 0 0 0 0 0
-0 0 0 0 0 0 -0 -0 -0 -0 -0 -0 -0 -0 -0 -0 -0 -0 -0 -0 -0 -0 -0 -0 -0 -0 -0 -0 0 0 0 0 -0 -0 -0 0 -0 0 0 -0 -0 0 0 0 0 0 0 0 0
-0 -0 0 0 0 0 -0 -0 0 -0 -0 -0 -0 -0 -0 -0 -0 -0 -0 -0 -0 -0 -0 -0 -0 -0 0 0 0 0 0 0 0 -0 -0 0 0 0 0 0 -0 -0 0 0 0 0 0 0 0
0 0 0 0 0 0 0 -0 -0 0 0 -0 -0 -0 -0 -0 -0 -0 -0 -0 -0 -0 -0 -0 0 0 0 0 0 0 0 0 0 0 0 0 0 0 0 0 0 -0 -0 -0 0 -0 0 0 0
0 0 0 0 0 0 0 0 0 0 0 0 0 -0 -0 -0 0 -0 -0 0 0 -0 0 0 -0 -0 0 0 0 0 0 0 0 0 -0 0 0 0 0 0 0 -0 -0 -0 0 0 0 0 0
0 0 0 0 0 0 0 0 -0 0 0 0 -0 0 0 -0 -0 -0 0 -0 -0 -0 0 0 0 0 0 0 0 0 0 0 0 0 -0 -0 -0 -0 0 0 0 0 0 0 0 0 0 0 0
0 0 0 0 0 0 0 0 0 0 0 0 0 0 0 -0 -0 0 0 -0 -0 -0 0 0 0 0 0 0 0 0 0 0 0 0 -0 -0 -0 -0 0 0 0 -0 0 0 0 0 0 0 0
0 0 0 0 0 0 0 0 -0 0 0 -0 -0 -0 0 0 0 0 0 0 0 0 0 0 0 0 0 0 0 0 0 0 0 0 -0 -0 -0 -0 0 0 0 0 0 0 0 0 0 0 0
0 0 0 0 0 0 0 0 -0 -0 -0 -0 0 -0 0 0 0 0 0 0 0 0 0 0 0 0 0 -0 0 -0 0 -0 -0 0 0 -0 0 0 0 0 0 0 0 0 0 0 0 0 0
0 0 0 0 0 0 0 0 0 -0 0 -0 0 0 0 -0 -0 -0 0 0 0 0 0 0 0 0 0 -0 -0 -0 -0 -0 0 -0 0 0 0 0 0 0 0 0 0 0 0 0 0 0 0
0 0 0 0 0 0 0 -0 0 0 0 0 -0 -0 0 0 0 0 0 0 0 0 0 0 0 0 0 0 0 0 0 0 0 0 0 0 0 0 0 0 0 0 0 0 0 0 0 0 0
Wind_Speed_500mb
13 15 11 4 2 1 6 11 10 20 16 6 26 8 5 8 1 3 35 46 50 50 50 44 39 40 39 36 31 27 25 24 24 24 23 23 21 17 13 14 16 14 15 17 23 23 18 15 19
14 6 3 3 3 5 8 9 22 18 11 12 14 3 1 6 6 25 45 54 52 51 47 43 42 40 37 32 27 23 20 19 19 21 21 19 16 13 13 12 14 14 15 15 19 21 17 19 19
10 5 3 4 4 6 7 18 21 8 14 29 11 10 4 5 10 52 41 60 56 51 48 46 43 39 34 29 23 20 17 17 18 19 20 18 14 13 12 15 18 15 14 16 18 20 18 20 21
8 6 5 5 11 5 14 21 25 9 5 9 14 11 9 5 33 29 60 56 55 52 48 46 42 37 31 28 23 20 17 15 17 20 22 22 18 15 13 14 16 15 15 15 16 18 17 18 18
7 3 5 5 5 4 11 17 9 5 1 8 5 9 13 4 18 46 58 51 54 52 46 43 38 32 29 27 22 21 18 18 21 20 21 21 21 16 14 14 14 13 13 13 15 15 15 16 17
2 1 5 6 6 1 7 29 10 4 9 14 16 16 5 14 33 57 53 50 51 50 45 41 36 30 28 27 23 22 19 18 18 19 19 18 16 13 14 13 12 11 11 11 12 11 10 12 14
4 3 4 2 4 3 10 27 9 12 12 10 24 9 14 23 38 54 50 51 49 48 45 42 38 30 28 25 23 21 21 20 18 17 16 15 14 12 10 11 10 10 10 10 10 10 9 10 13
2 1 5 3 4 3 11 14 14 18 8 25 10 12 16 39 51 51 47 48 48 46 43 41 37 31 29 25 24 22 21 19 17 17 15 14 11 10 10 8 9 10 10 11 12 11 14 15 14
2 1 2 5 7 4 8 8 11 4 27 9 4 11 25 57 57 52 47 44 48 48 45 41 37 32 28 26 24 22 20 18 17 16 15 14 12 12 10 10 11 12 14 16 16 17 19 19 19
4 1 6 3 1 4 6 11 21 7 21 9 21 26 57 58 56 57 55 52 53 51 49 43 39 34 30 28 27 25 24 22 19 17 15 15 14 11 12 8 12 16 19 19 19 20 22 26 30
4 2 6 6 2 6 10 15 13 19 6 13 28 52 53 52 52 52 53 52 50 48 49 45 39 34 31 30 29 30 27 23 23 20 18 16 15 20 20 17 18 23 26 30 26 26 25 27 32
2 3 3 4 7 4 6 13 11 15 17 12 33 56 54 53 54 52 50 50 47 47 45 42 40 36 33 29 33 27 26 26 25 24 21 18 19 26 27 24 24 28 30 37 34 33 31 31 31
3 3 2 3 10 12 4 12 5 12 5 25 42 52 49 47 50 46 43 41 43 43 40 38 36 35 33 32 30 31 32 31 28 27 25 26 24 27 30 32 31 31 29 32 36 35 34 32 33
5 7 3 4 6 9 9 8 2 6 21 34 42 46 44 45 46 42 47 47 45 40 35 34 33 32 32 32 31 31 31 32 27 28 27 26 28 30 32 32 32 30 30 28 37 36 38 35 36
6 5 6 1 4 5 8 6 0 21 26 36 36 38 40 41 42 49 46 43 40 40 33 31 26 31 32 32 31 30 29 31 32 30 31 31 33 33 34 36 33 26 25 28 31 40 42 43 42
3 3 3 4 5 3 8 5 4 27 31 31 32 37 39 44 49 47 43 43 41 39 42 34 33 32 32 32 33 33 32 33 32 32 33 36 40 41 38 41 38 31 28 27 28 32 45 48 45
6 8 5 3 6 6 10 6 13 28 27 27 32 36 41 42 45 47 45 41 43 41 41 40 40 40 35 35 36 37 37 36 35 36 37 36 38 44 41 41 38 34 36 34 34 38 39 43 48
14 12 4 7 3 12 7 12 15 34 32 32 33 36 41 50 52 49 44 43 42 41 40 41 45 45 43 40 40 40 40 40 39 41 41 40 44 39 43 44 42 38 36 34 36 41 38 39 37
1 7 4 3 7 7 11 15 20 35 35 36 35 38 41 49 43 43 48 48 47 46 47 43 44 46 50 48 47 45 45 43 39 41 42 41 46 46 43 47 36 36 38 33 33 35 37 39 35
6 9 7 5 8 5 6 21 16 31 43 45 44 47 51 49 46 46 54 53 52 53 49 46 43 46 46 46 46 47 46 46 45 44 40 39 40 47 42 38 32 27 31 35 34 31 34 39 35
4 10 6 8 10 3 11 10 14 23 38 38 49 51 50 53 52 50 54 60 56 55 51 46 41 44 45 46 43 45 38 39 42 45 39 36 40 38 29 32 32 31 36 40 38 32 30 33 34
12 14 5 5 4 6 7 8 9 18 28 36 44 51 58 57 54 48 48 54 58 51 51 46 44 41 42 42 39 38 35 34 41 50 50 43 35 34 27 27 30 32 35 38 37 34 31 30 27
5 8 2 5 2 7 4 7 4 0 15 31 45 57 54 53 48 50 49 51 58 55 48 43 45 41 36 29 33 31 27 32 35 34 46 25 25 27 26 30 34 32 37 35 34 36 35 36 28
15 10 6 1 5 6 8 6 6 10 10 8 20 36 40 38 41 47 47 46 48 52 49 51 44 39 28 21 26 34 18 50 45 38 53 28 28 28 31 27 27 27 27 31 32 31 38 36 28
11 8 6 6 4 6 6 7 19 16 14 12 17 12 10 19 29 30 40 36 41 41 37 35 34 29 19 21 24 29 35 40 43 41 25 28 24 21 25 33 27 27 29 30 34 34 29 31 27
12 10 7 7 5 8 2 9 8 4 2 10 14 8 3 3 10 20 23 20 22 25 26 23 17 15 25 29 21 17 29 19 27 42 22 36 29 42 38 31 26 29 28 23 20 23 23 26 27
9 11 4 6 3 10 4 10 24 18 15 22 17 10 2 7 12 12 9 6 10 10 6 7 16 23 25 18 14 4 10 8 6 7 4 10 12 21 23 17 16 17 18 17 18 18 20 25 22
9 17 6 3 8 13 8 10 15 23 16 9 15 9 12 16 17 17 18 15 17 17 21 23 27 25 22 17 15 10 11 18 19 11 10 14 16 9 9 9 9 8 9 12 14 16 17 20 22
9 8 5 2 5 11 15 14 13 20 16 12 15 5 16 19 17 23 31 31 27 23 23 29 35 33 32 27 22 18 21 22 17 10 5 6 4 4 7 8 8 8 8 8 8 10 11 10 12
7 14 16 12 8 3 6 20 4 15 12 14 21 15 15 16 18 27 33 21 23 29 33 40 45 43 37 31 30 30 27 24 21 17 13 12 15 12 11 11 10 9 9 10 10 10 10 10 9
Wind_Direction_500mb
130 132 122 65 213 51 83 67 95 109 140 132 162 230 215 48 346 36 149 157 157 151 153 151 148 148 146 140 138 132 130 131 130 131 136 139 140 133 131 148 151 134 129 142 154 161 168 150 139
64 105 26 321 22 56 73 41 98 45 147 122 150 134 70 79 64 138 148 156 157 150 151 152 155 150 146 144 141 137 136 138 140 143 143 143 134 122 121 119 144 144 138 138 150 161 165 166 153
44 40 339 43 62 46 60 90 106 145 137 151 162 95 34 33 125 144 159 154 157 151 148 153 155 155 153 151 151 146 143 141 148 155 150 150 133 136 139 128 138 137 138 138 141 152 159 155 156
26 26 47 40 56 63 80 117 108 66 28 174 131 84 67 101 146 156 154 155 158 152 151 152 158 160 159 158 159 156 157 146 153 155 151 153 153 156 148 144 142 141 136 137 133 142 157 157 165
17 52 53 76 49 73 107 133 149 95 25 120 138 95 105 125 168 154 155 158 161 158 157 159 164 165 164 163 164 161 159 147 149 155 158 155 159 161 153 153 161 156 153 152 148 146 163 167 174
301 131 28 41 9 76 135 160 144 205 166 130 118 113 91 144 167 157 158 160 164 163 161 163 166 165 168 169 166 165 167 160 150 153 160 159 162 158 160 159 156 154 147 147 145 156 177 187 178
264 117 62 102 2 316 119 161 201 155 154 155 150 100 138 154 162 160 161 164 165 166 165 167 166 168 172 175 171 174 173 172 169 169 163 162 162 165 166 167 172 182 179 195 198 204 210 198 199
230 6 131 216 103 19 124 132 162 157 106 133 140 164 174 173 163 164 164 168 171 170 172 173 172 174 176 178 179 179 182 183 184 185 181 179 184 191 196 202 213 212 226 224 226 221 224 231 234
186 247 353 153 170 142 155 130 160 122 139 121 13 156 168 158 161 163 168 174 178 178 181 183 184 186 188 189 192 190 196 192 198 204 205 207 215 215 218 226 241 247 245 243 240 236 234 233 246
210 6 13 23 133 236 194 162 156 163 156 90 82 120 151 156 164 169 176 180 183 185 188 192 194 196 200 200 204 206 204 207 213 219 220 229 234 238 246 260 285 270 269 251 249 244 241 239 238
138 353 127 87 317 237 229 169 160 155 224 200 158 149 156 162 171 178 182 186 186 191 197 198 201 205 211 213 213 216 216 218 225 225 228 234 246 244 234 259 267 269 271 262 264 257 250 244 239
176 104 59 103 28 131 179 169 142 164 203 222 169 164 163 169 177 184 187 190 193 199 204 207 208 215 219 221 225 227 234 232 236 237 236 235 260 251 252 265 277 277 277 253 254 258 250 250 250
98 76 177 198 39 55 184 203 168 175 47 148 158 166 171 175 183 187 192 197 200 208 212 215 219 225 226 230 233 234 233 240 243 247 251 247 262 259 261 268 279 282 279 258 250 253 247 246 250
68 151 198 227 71 58 161 123 126 143 132 144 163 174 177 180 183 190 194 198 204 209 216 220 223 228 231 235 240 242 241 241 248 252 256 264 267 265 270 270 273 281 273 272 255 252 246 253 254
107 216 175 329 96 82 150 171 115 160 152 153 171 181 188 191 191 195 195 198 204 213 217 222 225 230 230 232 239 242 242 244 248 255 260 263 269 271 275 275 268 275 279 276 272 253 253 260 258
42 82 341 62 183 36 191 246 138 170 162 163 179 190 195 197 205 209 211 215 218 221 225 227 229 232 234 235 237 242 246 249 255 258 269 270 272 272 270 273 266 264 267 272 276 271 259 258 260
17 341 294 316 205 151 205 257 190 184 186 173 181 197 208 213 215 219 220 226 227 231 234 236 238 239 241 244 247 250 255 259 263 267 269 275 278 271 266 269 263 264 260 263 272 274 271 267 267
323 321 281 273 186 215 205 243 190 197 199 198 190 199 212 220 223 219 223 231 235 240 244 248 248 250 249 249 251 255 261 267 271 275 280 282 286 277 262 267 265 257 255 255 265 273 276 276 277
35 297 269 211 182 219 251 264 212 204 215 210 209 211 214 222 221 226 232 236 241 247 247 248 251 253 253 253 253 255 262 268 278 280 279 280 295 296 279 268 271 261 254 257 263 271 276 279 281
221 242 233 209 173 233 280 265 228 211 220 223 217 218 219 223 228 233 234 236 243 250 251 255 257 259 258 259 263 267 274 279 284 289 291 291 296 297 289 274 267 261 266 268 264 262 275 281 280
223 242 226 322 159 155 289 267 232 219 228 235 237 237 235 227 225 225 234 237 241 247 251 254 264 264 263 264 265 262 274 284 295 296 299 305 308 306 290 272 270 270 265 266 272 264 260 269 278
276 230 234 250 247 324 333 302 248 216 228 229 237 232 237 235 232 229 228 235 237 242 250 257 261 265 267 266 259 263 282 293 302 307 304 298 301 294 287 283 281 277 275 274 270 263 260 264 272
326 117 156 234 253 286 47 266 269 115 246 243 234 237 238 243 242 240 237 235 240 243 245 254 260 259 258 260 252 246 260 291 288 301 310 314 287 287 293 292 281 276 272 271 258 264 263 258 262
143 118 94 94 294 259 26 308 259 211 228 209 230 242 237 241 245 249 252 254 247 247 249 252 256 253 246 248 247 245 286 296 317 295 298 273 275 280 289 297 286 287 281 279 277 269 262 258 267
206 228 277 241 215 321 9 251 270 260 253 251 279 260 224 236 238 243 245 254 251 246 248 253 253 240 229 234 244 245 288 281 293 295 335 215 251 268 305 269 278 273 282 275 281 275 271 259 267
197 234 254 290 312 337 123 249 282 264 230 224 242 249 316 234 207 207 232 243 245 244 245 255 244 217 225 235 241 212 312 269 305 314 266 214 230 279 284 301 286 288 281 284 274 269 276 273 277
163 210 335 191 168 274 302 272 275 274 254 242 253 263 352 100 128 159 146 151 194 195 162 125 168 192 206 210 146 65 156 252 253 276 126 196 233 302 292 303 290 282 275 276 271 271 278 276 277
237 137 175 211 249 264 257 279 270 296 298 206 240 231 139 112 119 124 128 139 146 133 140 153 168 171 150 136 156 143 173 181 171 169 206 245 256 270 301 319 321 305 297 283 286 288 289 294 289
162 185 81 156 252 272 282 278 218 256 284 215 216 203 151 145 139 138 134 131 135 139 151 160 147 139 138 138 136 145 166 169 169 195 170 154 160 147 110 90 66 42 26 1 340 320 327 325 322
241 226 192 240 214 242 308 273 166 265 283 221 197 164 159 160 177 164 158 153 153 148 142 138 132 127 123 123 126 127 132 134 133 131 131 133 129 122 113 97 81 57 39 23 15 13 5 358 336
Wind_Speed_850mb
13 15 11 4 2 1 6 11 10 20 16 6 26 8 5 8 1 3 35 46 50 50 50 44 39 40 39 36 31 27 25 24 24 24 23 23 21 17 13 14 16 14 15 17 23 23 18 15 19
14 6 3 3 3 5 8 9 22 18 11 12 14 3 1 6 6 25 45 54 52 51 47 43 42 40 37 32 27 23 20 19 19 21 21 19 16 13 13 12 14 14 15 15 19 21 17 19 19
10 5 3 4 4 6 7 18 21 8 14 29 11 10 4 5 10 52 41 60 56 51 48 46 43 39 34 29 23 20 17 17 18 19 20 18 14 13 12 15 18 15 14 16 18 20 18 20 21
8 6 5 5 11 5 14 21 25 9 5 9 14 11 9 5 33 29 60 56 55 52 48 46 42 37 31 28 23 20 17 15 17 20 22 22 18 15 13 14 16 15 15 15 16 18 17 18 18
7 3 5 5 5 4 11 17 9 5 1 8 5 9 13 4 18 46 58 51 54 52 46 43 38 32 29 27 22 21 18 18 21 20 21 21 21 16 14 14 14 13 13 13 15 15 15 16 17
2 1 5 6 6 1 7 29 10 4 9 14 16 16 5 14 33 57 53 50 51 50 45 41 36 30 28 27 23 22 19 18 18 19 19 18 16 13 14 13 12 11 11 11 12 11 10 12 14
4 3 4 2 4 3 10 27 9 12 12 10 24 9 14 23 38 54 50 51 49 48 45 42 38 30 28 25 23 21 21 20 18 17 16 15 14 12 10 11 10 10 10 10 10 10 9 10 13
2 1 5 3 4 3 11 14 14 18 8 25 10 12 16 39 51 51 47 48 48 46 43 41 37 31 29 25 24 22 21 19 17 17 15 14 11 10 10 8 9 10 10 11 12 11 14 15 14
2 1 2 5 7 4 8 8 11 4 27 9 4 11 25 57 57 52 47 44 48 48 45 41 37 32 28 26 24 22 20 18 17 16 15 14 12 12 10 10 11 12 14 16 16 17 19 19 19
4 1 6 3 1 4 6 11 21 7 21 9 21 26 57 58 56 57 55 52 53 51 49 43 39 34 30 28 27 25 24 22 19 17 15 15 14 11 12 8 12 16 19 19 19 20 22 26 30
4 2 6 6 2 6 10 15 13 19 6 13 28 52 53 52 52 52 53 52 50 48 49 45 39 34 31 30 29 30 27 23 23 20 18 16 15 20 20 17 18 23 26 30 26 26 25 27 32
2 3 3 4 7 4 6 13 11 15 17 12 33 56 54 53 54 52 50 50 47 47 45 42 40 36 33 29 33 27 26 26 25 24 21 18 19 26 27 24 24 28 30 37 34 33 31 31 31
3 3 2 3 10 12 4 12 5 12 5 25 42 52 49 47 50 46 43 41 43 43 40 38 36 35 33 32 30 31 32 31 28 27 25 26 24 27 30 32 31 31 29 32 36 35 34 32 33
5 7 3 4 6 9 9 8 2 6 21 34 42 46 44 45 46 42 47 47 45 40 35 34 33 32 32 32 31 31 31 32 27 28 27 26 28 30 32 32 32 30 30 28 37 36 38 35 36
6 5 6 1 4 5 8 6 0 21 26 36 36 38 40 41 42 49 46 43 40 40 33 31 26 31 32 32 31 30 29 31 32 30 31 31 33 33 34 36 33 26 25 28 31 40 42 43 42
3 3 3 4 5 3 8 5 4 27 31 31 32 37 39 44 49 47 43 43 41 39 42 34 33 32 32 32 33 33 32 33 32 32 33 36 40 41 38 41 38 31 28 27 28 32 45 48 45
6 8 5 3 6 6 10 6 13 28 27 27 32 36 41 42 45 47 45 41 43 41 41 40 40 40 35 35 36 37 37 36 35 36 37 36 38 44 41 41 38 34 36 34 34 38 39 43 48
14 12 4 7 3 12 7 12 15 34 32 32 33 36 41 50 52 49 44 43 42 41 40 41 45 45 43 40 40 40 40 40 39 41 41 40 44 39 43 44 42 38 36 34 36 41 38 39 37
1 7 4 3 7 7 11 15 20 35 35 36 35 38 41 49 43 43 48 48 47 46 47 43 44 46 50 48 47 45 45 43 39 41 42 41 46 46 43 47 36 36 38 33 33 35 37 39 35
6 9 7 5 8 5 6 21 16 31 43 45 44 47 51 49 46 46 54 53 52 53 49 46 43 46 46 46 46 47 46 46 45 44 40 39 40 47 42 38 32 27 31 35 34 31 34 39 35
4 10 6 8 10 3 11 10 14 23 38 38 49 51 50 53 52 50 54 60 56 55 51 46 41 44 45 46 43 45 38 39 42 45 39 36 40 38 29 32 32 31 36 40 38 32 30 33 34
12 14 5 5 4 6 7 8 9 18 28 36 44 51 58 57 54 48 48 54 58 51 51 46 44 41 42 42 39 38 35 34 41 50 50 43 35 34 27 27 30 32 35 38 37 34 31 30 27
5 8 2 5 2 7 4 7 4 0 15 31 45 57 54 53 48 50 49 51 58 55 48 43 45 41 36 29 33 31 27 32 35 34 46 25 25 27 26 30 34 32 37 35 34 36 35 36 28
15 10 6 1 5 6 8 6 6 10 10 8 20 36 40 38 41 47 47 46 48 52 49 51 44 39 28 21 26 34 18 50 45 38 53 28 28 28 31 27 27 27 27 31 32 31 38 36 28
11 8 6 6 4 6 6 7 19 16 14 12 17 12 10 19 29 30 40 36 41 41 37 35 34 29 19 21 24 29 35 40 43 41 25 28 24 21 25 33 27 27 29 30 34 34 29 31 27
12 10 7 7 5 8 2 9 8 4 2 10 14 8 3 3 10 20 23 20 22 25 26 23 17 15 25 29 21 17 29 19 27 42 22 36 29 42 38 31 26 29 28 23 20 23 23 26 27
9 11 4 6 3 10 4 10 24 18 15 22 17 10 2 7 12 12 9 6 10 10 6 7 16 23 25 18 14 4 10 8 6 7 4 10 12 21 23 17 16 17 18 17 18 18 20 25 22
9 17 6 3 8 13 8 10 15 23 16 9 15 9 12 16 17 17 18 15 17 17 21 23 27 25 22 17 15 10 11 18 19 11 10 14 16 9 9 9 9 8 9 12 14 16 17 20 22
9 8 5 2 5 11 15 14 13 20 16 12 15 5 16 19 17 23 31 31 27 23 23 29 35 33 32 27 22 18 21 22 17 10 5 6 4 4 7 8 8 8 8 8 8 10 11 10 12
7 14 16 12 8 3 6 20 4 15 12 14 21 15 15 16 18 27 33 21 23 29 33 40 45 43 37 31 30 30 27 24 21 17 13 12 15 12 11 11 10 9 9 10 10 10 10 10 9
Wind_Direction_850mb
130 132 122 65 213 51 83 67 95 109 140 132 162 230 215 48 346 36 149 157 157 151 153 151 148 148 146 140 138 132 130 131 130 131 136 139 140 133 131 148 151 134 129 142 154 161 168 150 139
64 105 26 321 22 56 73 41 98 45 147 122 150 134 70 79 64 138 148 156 157 150 151 152 155 150 146 144 141 137 136 138 140 143 143 143 134 122 121 119 144 144 138 138 150 161 165 166 153
44 40 339 43 62 46 60 90 106 145 137 151 162 95 34 33 125 144 159 154 157 151 148 153 155 155 153 151 151 146 143 141 148 155 150 150 133 136 139 128 138 137 138 138 141 152 159 155 156
26 26 47 40 56 63 80 117 108 66 28 174 131 84 67 101 146 156 154 155 158 152 151 152 158 160 159 158 159 156 157 146 153 155 151 153 153 156 148 144 142 141 136 137 133 142 157 157 165
17 52 53 76 49 73 107 133 149 95 25 120 138 95 105 125 168 154 155 158 161 158 157 159 164 165 164 163 164 161 159 147 149 155 158 155 159 161 153 153 161 156 153 152 148 146 163 167 174
301 131 28 41 9 76 135 160 144 205 166 130 118 113 91 144 167 157 158 160 164 163 161 163 166 165 168 169 166 165 167 160 150 153 160 159 162 158 160 159 156 154 147 147 145 156 177 187 178
264 117 62 102 2 316 119 161 201 155 154 155 150 100 138 154 162 160 161 164 165 166 165 167 166 168 172 175 171 174 173 172 169 169 163 162 162 165 166 167 172 182 179 195 198 204 210 198 199
230 6 131 216 103 19 124 132 162 157 106 133 140 164 174 173 163 164 164 168 171 170 172 173 172 174 176 178 179 179 182 183 184 185 181 179 184 191 196 202 213 212 226 224 226 221 224 231 234
186 247 353 153 170 142 155 130 160 122 139 121 13 156 168 158 161 163 168 174 178 178 181 183 184 186 188 189 192 190 196 192 198 204 205 207 215 215 218 226 241 247 245 243 240 236 234 233 246
210 6 13 23 133 236 194 162 156 163 156 90 82 120 151 156 164 169 176 180 183 185 188 192 194 196 200 200 204 206 204 207 213 219 220 229 234 238 246 260 285 270 269 251 249 244 241 239 238
138 353 127 87 317 237 229 169 160 155 224 200 158 149 156 162 171 178 182 186 186 191 197 198 201 205 211 213 213 216 216 218 225 225 228 234 246 244 234 259 267 269 271 262 264 257 250 244 239
176 104 59 103 28 131 179 169 142 164 203 222 169 164 163 169 177 184 187 190 193 199 204 207 208 215 219 221 225 227 234 232 236 237 236 235 260 251 252 265 277 277 277 253 254 258 250 250 250
98 76 177 198 39 55 184 203 168 175 47 148 158 166 171 175 183 187 192 197 200 208 212 215 219 225 226 230 233 234 233 240 243 247 251 247 262 259 261 268 279 282 279 258 250 253 247 246 250
68 151 198 227 71 58 161 123 126 143 132 144 163 174 177 180 183 190 194 198 204 209 216 220 223 228 231 235 240 242 241 241 248 252 256 264 267 265 270 270 273 281 273 272 255 252 246 253 254
107 216 175 329 96 82 150 171 115 160 152 153 171 181 188 191 191 195 195 198 204 213 217 222 225 230 230 232 239 242 242 244 248 255 260 263 269 271 275 275 268 275 279 276 272 253 253 260 258
42 82 341 62 183 36 191 246 138 170 162 163 179 190 195 197 205 209 211 215 218 221 225 227 229 232 234 235 237 242 246 249 255 258 269 270 272 272 270 273 266 264 267 272 276 271 259 258 260
17 341 294 316 205 151 205 257 190 184 186 173 181 197 208 213 215 219 220 226 227 231 234 236 238 239 241 244 247 250 255 259 263 267 269 275 278 271 266 269 263 264 260 263 272 274 271 267 267
323 321 281 273 186 215 205 243 190 197 199 198 190 199 212 220 223 219 223 231 235 240 244 248 248 250 249 249 251 255 261 267 271 275 280 282 286 277 262 267 265 257 255 255 265 273 276 276 277
35 297 269 211 182 219 251 264 212 204 215 210 209 211 214 222 221 226 232 236 241 247 247 248 251 253 253 253 253 255 262 268 278 280 279 280 295 296 279 268 271 261 254 257 263 271 276 279 281
221 242 233 209 173 233 280 265 228 211 220 223 217 218 219 223 228 233 234 236 243 250 251 255 257 259 258 259 263 267 274 279 284 289 291 291 296 297 289 274 267 261 266 268 264 262 275 281 280
223 242 226 322 159 155 289 267 232 219 228 235 237 237 235 227 225 225 234 237 241 247 251 254 264 264 263 264 265 262 274 284 295 296 299 305 308 306 290 272 270 270 265 266 272 264 260 269 278
276 230 234 250 247 324 333 302 248 216 228 229 237 232 237 235 232 229 228 235 237 242 250 257 261 265 267 266 259 263 282 293 302 307 304 298 301 294 287 283 281 277 275 274 270 263 260 264 272
326 117 156 234 253 286 47 266 269 115 246 243 234 237 238 243 242 240 237 235 240 243 245 254 260 259 258 260 252 246 260 291 288 301 310 314 287 287 293 292 281 276 272 271 258 264 263 258 262
143 118 94 94 294 259 26 308 259 211 228 209 230 242 237 241 245 249 252 254 247 247 249 252 256 253 246 248 247 245 286 296 317 295 298 273 275 280 289 297 286 287 281 279 277 269 262 258 267
206 228 277 241 215 321 9 251 270 260 253 251 279 260 224 236 238 243 245 254 251 246 248 253 253 240 229 234 244 245 288 281 293 295 335 215 251 268 305 269 278 273 282 275 281 275 271 259 267
197 234 254 290 312 337 123 249 282 264 230 224 242 249 316 234 207 207 232 243 245 244 245 255 244 217 225 235 241 212 312 269 305 314 266 214 230 279 284 301 286 288 281 284 274 269 276 273 277
163 210 335 191 168 274 302 272 275 274 254 242 253 263 352 100 128 159 146 151 194 195 162 125 168 192 206 210 146 65 156 252 253 276 126 196 233 302 292 303 290 282 275 276 271 271 278 276 277
237 137 175 211 249 264 257 279 270 296 298 206 240 231 139 112 119 124 128 139 146 133 140 153 168 171 150 136 156 143 173 181 171 169 206 245 256 270 301 319 321 305 297 283 286 288 289 294 289
162 185 81 156 252 272 282 278 218 256 284 215 216 203 151 145 139 138 134 131 135 139 151 160 147 139 138 138 136 145 166 169 169 195 170 154 160 147 110 90 66 42 26 1 340 320 327 325 322
241 226 192 240 214 242 308 273 166 265 283 221 197 164 159 160 177 164 158 153 153 148 142 138 132 127 123 123 126 127 132 134 133 131 131 133 129 122 113 97 81 57 39 23 15 13 5 358 336